Location: Unspecified
(51.5147°N, 7.4673°E)
Time: 03:52:48
(UTC+01:00)

Vanguard 1 Rocket - Pass Details

Date: 21 February 2026
Orbit: 653 x 4214 km, 34.3° (Epoch: 5 March)

Event Time Altitude Azimuth Distance (km) Brightness Sun altitude
Rises 11:46:28 0° 192° (SSW) 3,818 11.5 26.8°
Reaches altitude 10° 11:50:14 10° 169° (SSE) 3,322 12.1 26.9°
Maximum altitude 11:54:39 15° 137° (SE) 3,497 11.6 27.1°
Drops below altitude 10° 12:00:27 10° 107° (ESE) 4,630 11.5 27.3°
Sets 12:07:40 0° 90° (E) 6,488 11.9 27.5°
